Regional Weather Roundup
Issued by NWS Goodland, KS

Home | Current Version | Previous Version | Graphics & Text | Print | Product List | Glossary On
Versions: 1 2 3 4 5 6 7 8 9 10 11 12 13 14 15 16 17 18 19 20 21 22 23 24 25 26 27 28 29 30 31 32 33 34 35 36 37 38 39 40 41 42 43 44 45 46 47 48 49 50
000
ASUS43 KGLD 040359
RWRGLD

GOODLAND FORECAST AREA HOURLY WEATHER ROUNDUP
NATIONAL WEATHER SERVICE GOODLAND KS
1000 PM MDT MON AUG 03 2015

...OFFICIAL OBSERVATIONS...

CITY           SKY/WX    TMP DP  RH WIND       PRES   REMARKS
GOODLAND KS    MOCLDY    73  56  54 SE7       30.01R
HILL CITY KS   CLOUDY    81  66  60 S9        29.93S
IMPERIAL NEB   MOCLDY    74  55  51 W5        29.98R
MCCOOK NEB     CLOUDY    76  71  85 NE6       29.95R
AKRON CO       PTCLDY    65  48  54 S9        30.07R
BURLINGTON CO  PTCLDY    68  54  60 S12G21    30.04R
LIMON CO       MOCLDY    58  54  86 CALM      30.12S
$$

...UNOFFICIAL OBSERVATIONS...

CITY           SKY/WX    TMP DP  RH WIND       PRES   REMARKS
COLBY KS       CLEAR     75  64  69 NW6       29.98R
NORTON KS      CLEAR     75  61  60 E6        29.93
SHARON SPRINGS   N/A     71  60  69 S6          N/A
KIT CARSON CO    N/A     65  58  77 MISG        N/A
YUMA CO          N/A     62  54  76 CALM        N/A
$$


USA.gov is the U.S. government's official web portal to all federal, state and local government web resources and services.